| time (UTC) | temp F | wind direction | speed MPH | gust MPH | rain 1hr in | rain 24hr in | rain mn in | humidity % | barometer mb |
| 20260507143908 | 60 | 0 | 1.0 | 4.0 | 0.00 | 0.03 | 0.00 | 70 | 1019.6 |
| 20260507141809 | 59 | 49 | 1.0 | 3.0 | 0.00 | 0.03 | 0.00 | 73 | 1019.8 |
| 20260507140753 | 58 | 28 | 0.0 | 2.0 | 0.00 | 0.03 | 0.00 | 75 | 1019.9 |
| 20260507135746 | 57 | 0 | 0.0 | 1.0 | 0.00 | 0.03 | 0.00 | 78 | 1020.0 |
| 20260507134738 | 56 | 44 | 1.0 | 4.0 | 0.00 | 0.03 | 0.00 | 76 | 1019.9 |
| 20260507133709 | 55 | 343 | 0.0 | 0.0 | 0.00 | 0.03 | 0.00 | 81 | 1020.1 |
| 20260507130328 | 52 | 0 | 0.0 | 3.0 | 0.00 | 0.03 | 0.00 | 85 | 1019.8 |
| 20260507125252 | 52 | 52 | 0.0 | 0.0 | 0.00 | 0.03 | 0.00 | 86 | 1019.8 |
| 20260507124250 | 51 | 52 | 0.0 | 0.0 | 0.00 | 0.03 | 0.00 | 86 | 1019.8 |
| 20260507122055 | 50 | 43 | 0.0 | 0.0 | 0.00 | 0.03 | 0.00 | 85 | 1019.4 |
| 20260507121115 | 50 | 44 | 0.0 | 0.0 | 0.00 | 0.03 | 0.00 | 85 | 1019.3 |
| 20260507112708 | 51 | 44 | 0.0 | 0.0 | 0.00 | 0.03 | 0.00 | 84 | 1019.0 |
| 20260507110509 | 51 | 44 | 0.0 | 0.0 | 0.00 | 0.03 | 0.00 | 85 | 1018.8 |
| 20260507105529 | 51 | 44 | 0.0 | 0.0 | 0.00 | 0.03 | 0.00 | 84 | 1018.9 |
| 20260507104529 | 51 | 44 | 0.0 | 0.0 | 0.00 | 0.03 | 0.00 | 84 | 1018.7 |
| 20260507103507 | 51 | 43 | 0.0 | 0.0 | 0.00 | 0.03 | 0.00 | 84 | 1018.4 |
| 20260507101415 | 52 | 44 | 0.0 | 0.0 | 0.00 | 0.03 | 0.00 | 84 | 1018.1 |
| 20260507095326 | 52 | 44 | 0.0 | 0.0 | 0.00 | 0.03 | 0.00 | 82 | 1017.5 |
| 20260507093215 | 52 | 44 | 0.0 | 0.0 | 0.00 | 0.03 | 0.00 | 81 | 1017.2 |
| 20260507092140 | 52 | 44 | 0.0 | 0.0 | 0.00 | 0.03 | 0.00 | 81 | 1017.3 |
| 20260507091131 | 52 | 44 | 0.0 | 0.0 | 0.00 | 0.03 | 0.00 | 81 | 1017.3 |
| 20260507090151 | 53 | 44 | 0.0 | 0.0 | 0.00 | 0.03 | 0.00 | 80 | 1017.3 |
| 20260507085122 | 53 | 44 | 0.0 | 0.0 | 0.00 | 0.03 | 0.00 | 79 | 1017.3 |
| 20260507084100 | 54 | 44 | 0.0 | 0.0 | 0.00 | 0.03 | 0.00 | 79 | 1017.3 |
| 20260507083030 | 54 | 43 | 0.0 | 0.0 | 0.00 | 0.03 | 0.00 | 78 | 1017.4 |
| 20260507080910 | 54 | 44 | 0.0 | 0.0 | 0.00 | 0.03 | 0.00 | 78 | 1017.2 |
| 20260507074710 | 55 | 24 | 0.0 | 2.0 | 0.00 | 0.03 | 0.00 | 78 | 1016.9 |
| 20260507073722 | 55 | 313 | 0.0 | 4.0 | 0.00 | 0.03 | 0.00 | 77 | 1016.9 |
| 20260507072647 | 55 | 37 | 0.0 | 4.0 | 0.00 | 0.03 | 0.00 | 78 | 1016.7 |
| 20260507070521 | 54 | 13 | 0.0 | 2.0 | 0.00 | 0.03 | 0.00 | 78 | 1016.9 |
| 20260507064434 | 55 | 28 | 0.0 | 0.0 | 0.00 | 0.03 | 0.00 | 76 | 1017.1 |
| 20260507063440 | 55 | 0 | 0.0 | 0.0 | 0.00 | 0.03 | 0.00 | 76 | 1017.0 |
| 20260507062458 | 55 | 0 | 0.0 | 0.0 | 0.00 | 0.03 | 0.00 | 76 | 1016.8 |
| 20260507061443 | 56 | 0 | 0.0 | 1.0 | 0.00 | 0.03 | 0.00 | 75 | 1016.7 |
| 20260507060435 | 56 | 0 | 0.0 | 0.0 | 0.00 | 0.03 | 0.00 | 74 | 1016.6 |
| 20260507055457 | 56 | 0 | 0.0 | 0.0 | 0.00 | 0.03 | 0.00 | 74 | 1016.5 |
| 20260507054505 | 56 | 0 | 0.0 | 2.0 | 0.00 | 0.03 | 0.00 | 73 | 1016.3 |
| 20260507052349 | 57 | 0 | 0.0 | 2.0 | 0.00 | 0.03 | 0.00 | 73 | 1016.3 |
| 20260507051335 | 57 | 0 | 0.0 | 0.0 | 0.00 | 0.03 | 0.00 | 72 | 1016.3 |
| 20260507050308 | 57 | 0 | 0.0 | 4.0 | 0.00 | 0.03 | 0.00 | 72 | 1016.3 |
| 20260507045254 | 57 | 0 | 0.0 | 3.0 | 0.00 | 0.03 | 0.03 | 71 | 1016.3 |
| 20260507044243 | 58 | 40 | 0.0 | 2.0 | 0.00 | 0.03 | 0.03 | 71 | 1016.5 |
| 20260507043234 | 58 | 30 | 0.0 | 2.0 | 0.00 | 0.03 | 0.03 | 70 | 1016.6 |
| 20260507042233 | 58 | 30 | 0.0 | 6.0 | 0.00 | 0.03 | 0.03 | 70 | 1016.6 |
| 20260507041221 | 59 | 38 | 1.0 | 6.0 | 0.00 | 0.03 | 0.03 | 69 | 1016.5 |
| 20260507040200 | 59 | 64 | 1.0 | 8.0 | 0.00 | 0.03 | 0.03 | 69 | 1016.6 |
| 20260507032925 | 60 | 61 | 1.0 | 0.0 | 0.00 | 0.03 | 0.03 | 69 | 1016.7 |
| 20260507031922 | 60 | 49 | 1.0 | 5.0 | 0.00 | 0.03 | 0.03 | 69 | 1016.7 |
| 20260507030931 | 60 | 61 | 2.0 | 6.0 | 0.00 | 0.03 | 0.03 | 68 | 1016.6 |
| 20260507025927 | 60 | 53 | 1.0 | 6.0 | 0.00 | 0.03 | 0.03 | 68 | 1016.3 |
| 20260507023747 | 60 | 74 | 3.0 | 10.0 | 0.00 | 0.03 | 0.03 | 67 | 1016.1 |
| 20260507022747 | 61 | 23 | 2.0 | 9.0 | 0.00 | 0.03 | 0.03 | 67 | 1015.8 |
| 20260507021731 | 61 | 355 | 2.0 | 12.0 | 0.00 | 0.03 | 0.03 | 68 | 1015.7 |
| 20260507015648 | 62 | 38 | 4.0 | 9.0 | 0.00 | 0.03 | 0.03 | 67 | 1015.4 |
| 20260507014702 | 62 | 38 | 2.0 | 10.0 | 0.00 | 0.03 | 0.03 | 68 | 1014.9 |
| 20260507013706 | 62 | 44 | 3.0 | 10.0 | 0.00 | 0.03 | 0.03 | 67 | 1014.6 |
| 20260507012656 | 62 | 56 | 2.0 | 7.0 | 0.00 | 0.03 | 0.03 | 68 | 1014.4 |
| 20260507011646 | 62 | 59 | 2.0 | 9.0 | 0.00 | 0.03 | 0.03 | 68 | 1014.1 |
| 20260507005522 | 63 | 46 | 2.0 | 5.0 | 0.00 | 0.03 | 0.03 | 68 | 1013.9 |
| 20260507003345 | 63 | 40 | 1.0 | 8.0 | 0.00 | 0.03 | 0.03 | 67 | 1013.8 |
| 20260507001133 | 63 | 336 | 0.0 | 5.0 | 0.00 | 0.03 | 0.03 | 66 | 1013.6 |
| 20260507000132 | 64 | 47 | 2.0 | 8.0 | 0.00 | 0.03 | 0.03 | 67 | 1013.4 |
| 20260506235129 | 64 | 20 | 1.0 | 12.0 | 0.00 | 0.03 | 0.03 | 67 | 1013.3 |
| 20260506234113 | 64 | 298 | 3.0 | 12.0 | 0.00 | 0.03 | 0.03 | 66 | 1013.2 |
| 20260506233056 | 64 | 45 | 3.0 | 13.0 | 0.00 | 0.03 | 0.03 | 66 | 1013.2 |
| 20260506232049 | 65 | 55 | 4.0 | 13.0 | 0.00 | 0.03 | 0.03 | 65 | 1013.0 |
| 20260506231052 | 65 | 82 | 3.0 | 10.0 | 0.00 | 0.03 | 0.03 | 65 | 1013.1 |
| 20260506230025 | 65 | 32 | 3.0 | 10.0 | 0.00 | 0.03 | 0.03 | 65 | 1012.8 |
| 20260506224951 | 66 | 65 | 3.0 | 9.0 | 0.00 | 0.03 | 0.03 | 65 | 1012.7 |
| 20260506223946 | 66 | 0 | 2.0 | 9.0 | 0.00 | 0.03 | 0.03 | 64 | 1012.6 |
| 20260506222937 | 66 | 46 | 3.0 | 9.0 | 0.00 | 0.03 | 0.03 | 64 | 1012.4 |
| 20260506215725 | 66 | 34 | 3.0 | 12.0 | 0.00 | 0.03 | 0.03 | 64 | 1012.5 |
| 20260506214701 | 65 | 39 | 3.0 | 12.0 | 0.00 | 0.03 | 0.03 | 63 | 1012.5 |
| 20260506213640 | 65 | 53 | 3.0 | 10.0 | 0.00 | 0.03 | 0.03 | 65 | 1012.5 |
| 20260506212636 | 65 | 48 | 3.0 | 10.0 | 0.00 | 0.03 | 0.03 | 65 | 1012.7 |
| 20260506211615 | 64 | 18 | 2.0 | 8.0 | 0.00 | 0.03 | 0.03 | 67 | 1013.0 |
| 20260506205441 | 64 | 50 | 1.0 | 6.0 | 0.00 | 0.03 | 0.03 | 68 | 1012.6 |
| 20260506203317 | 63 | 28 | 3.0 | 11.0 | 0.00 | 0.03 | 0.03 | 67 | 1012.8 |
| 20260506202306 | 63 | 63 | 2.0 | 6.0 | 0.00 | 0.03 | 0.03 | 68 | 1013.0 |
| 20260506201237 | 63 | 37 | 1.0 | 6.0 | 0.00 | 0.03 | 0.03 | 67 | 1013.4 |
| 20260506200225 | 63 | 90 | 2.0 | 6.0 | 0.00 | 0.03 | 0.03 | 67 | 1013.5 |
| 20260506195228 | 62 | 49 | 1.0 | 7.0 | 0.00 | 0.03 | 0.03 | 69 | 1013.6 |
| 20260506194238 | 61 | 0 | 2.0 | 7.0 | 0.00 | 0.03 | 0.03 | 70 | 1013.8 |
| 20260506193221 | 61 | 114 | 0.0 | 3.0 | 0.00 | 0.03 | 0.03 | 69 | 1013.8 |
| 20260506192202 | 60 | 22 | 1.0 | 4.0 | 0.00 | 0.03 | 0.03 | 69 | 1013.8 |
| 20260506191134 | 60 | 5 | 1.0 | 11.0 | 0.00 | 0.03 | 0.03 | 68 | 1013.8 |
| 20260506184937 | 60 | 74 | 3.0 | 9.0 | 0.00 | 0.03 | 0.03 | 71 | 1013.1 |
| 20260506183912 | 59 | 279 | 3.0 | 10.0 | 0.00 | 0.03 | 0.03 | 73 | 1013.0 |
| 20260506182910 | 58 | 40 | 3.0 | 10.0 | 0.00 | 0.03 | 0.03 | 72 | 1013.0 |
| 20260506181903 | 58 | 55 | 3.0 | 9.0 | 0.00 | 0.03 | 0.03 | 72 | 1013.2 |
| 20260506175729 | 57 | 58 | 3.0 | 9.0 | 0.00 | 0.02 | 0.02 | 75 | 1013.3 |
| 20260506174658 | 56 | 0 | 3.0 | 10.0 | 0.00 | 0.02 | 0.02 | 75 | 1013.3 |
| 20260506173652 | 56 | 0 | 3.0 | 10.0 | 0.00 | 0.02 | 0.02 | 76 | 1013.1 |
| 20260506172628 | 55 | 0 | 2.0 | 9.0 | 0.00 | 0.02 | 0.02 | 76 | 1013.1 |
| 20260506170519 | 55 | 55 | 2.0 | 9.0 | 0.00 | 0.02 | 0.02 | 78 | 1013.6 |
| 20260506165516 | 55 | 0 | 1.0 | 9.0 | 0.00 | 0.02 | 0.02 | 78 | 1013.9 |
| 20260506164454 | 54 | 0 | 2.0 | 10.0 | 0.00 | 0.02 | 0.02 | 79 | 1013.9 |
| 20260506162251 | 54 | 0 | 3.0 | 9.0 | 0.00 | 0.02 | 0.02 | 80 | 1013.3 |
| 20260506161305 | 54 | 0 | 1.0 | 8.0 | 0.00 | 0.02 | 0.02 | 80 | 1013.6 |
| 20260506160323 | 54 | 0 | 2.0 | 7.0 | 0.00 | 0.02 | 0.02 | 80 | 1013.9 |
| 20260506155342 | 54 | 0 | 1.0 | 11.0 | 0.00 | 0.02 | 0.02 | 81 | 1013.5 |
| 20260506153224 | 54 | 0 | 0.0 | 3.0 | 0.04 | 0.02 | 0.02 | 81 | 1014.2 |
| 20260506151029 | 54 | 0 | 0.0 | 3.0 | 0.00 | 0.00 | 0.00 | 79 | 1015.1 |